BMCB-24 Weather Reports


time (UTC)temp
C
wind
direction
speed
KPH
gust
KPH
rain 1hr
cm
rain 24hr
cm
rain mn
cm
humidity
%
barometer
mb
20260510065055 13 0 0.0 0.0 0.00 0.00 0.00 68 1013.4
20260510063055 13 0 0.0 0.0 0.00 0.00 0.00 68 1013.4
20260510061054 12 0 0.0 0.0 0.00 0.00 0.00 70 1013.5
20260510055054 12 0 0.0 0.0 0.00 0.00 0.00 72 1013.7
20260510054055 11 0 0.0 0.0 0.00 0.00 0.00 72 1013.8
20260510053055 11 0 0.0 0.0 0.00 0.00 0.00 73 1013.9
20260510052053 11 0 0.0 0.0 0.00 0.00 0.00 73 1013.9
20260510051054 11 0 0.0 0.0 0.00 0.00 0.00 74 1013.9
20260510050054 11 0 0.0 0.0 0.00 0.00 0.00 73 1014.0
20260510045056 11 0 0.0 0.0 0.00 0.00 0.00 74 1014.0
20260510044054 11 0 0.0 0.0 0.00 0.00 0.00 74 1014.1
20260510043054 11 0 0.0 0.0 0.00 0.00 0.00 73 1014.1
20260510042053 11 0 0.0 0.0 0.00 0.00 0.00 74 1014.2
20260510041056 11 0 0.0 0.0 0.00 0.00 0.00 74 1014.3
20260510040056 11 0 0.0 0.0 0.00 0.00 0.00 74 1014.4
20260510035058 11 0 0.0 0.0 0.00 0.00 0.00 74 1014.5
20260510034055 11 0 0.0 0.0 0.00 0.00 0.00 74 1014.4
20260510033057 11 0 0.0 0.0 0.00 0.00 0.00 74 1014.5
20260510032055 11 0 0.0 0.0 0.00 0.00 0.00 74 1014.6
20260510031055 11 0 0.0 0.0 0.00 0.00 0.00 74 1014.6
20260510030055 11 0 0.0 0.0 0.00 0.00 0.00 73 1014.6
20260510024055 11 0 0.0 0.0 0.00 0.00 0.00 74 1014.8
20260510023054 11 0 0.0 0.0 0.00 0.00 0.00 74 1014.8
20260510022054 11 0 0.0 0.0 0.00 0.00 0.00 74 1014.8
20260510021055 11 0 0.0 0.0 0.00 0.00 0.00 74 1014.9
20260510020054 11 0 0.0 0.0 0.00 0.00 0.00 75 1015.0
20260510014053 11 0 0.0 0.0 0.00 0.00 0.00 73 1015.1
20260510013057 11 0 0.0 0.0 0.00 0.00 0.00 73 1015.1
20260510011052 12 0 0.0 0.0 0.00 0.00 0.00 73 1015.2
20260510005053 12 0 0.0 0.0 0.00 0.00 0.00 72 1015.2
20260510004055 12 0 0.0 0.0 0.00 0.00 0.00 73 1015.3
20260510003055 12 0 0.0 0.0 0.00 0.00 0.00 73 1015.4
20260510002056 12 0 0.0 0.0 0.00 0.00 0.00 73 1015.4
20260510001055 12 0 0.0 0.0 0.00 0.00 0.00 74 1015.5
20260509234059 11 0 0.0 0.0 0.00 0.00 0.00 75 1015.7
20260509233104 11 0 0.0 0.0 0.00 0.00 0.00 75 1015.8
20260509232103 11 0 0.0 0.0 0.00 0.00 0.00 76 1015.9
20260509231101 11 0 0.0 0.0 0.00 0.00 0.00 76 1015.8
20260509230104 11 0 0.0 0.0 0.00 0.00 0.00 77 1015.9
20260509225107 11 0 0.0 0.0 0.00 0.00 0.00 78 1015.9
20260509224105 10 0 0.0 0.0 0.00 0.00 0.00 81 1016.1
20260509223101 10 0 0.0 0.0 0.00 0.00 0.00 82 1016.2
20260509221106 10 0 0.0 0.0 0.00 0.00 0.00 81 1016.2
20260509220104 11 0 0.0 0.0 0.00 0.00 0.00 80 1016.2
20260509215111 11 0 0.0 0.0 0.00 0.00 0.00 79 1016.2
20260509214111 11 0 0.0 0.0 0.00 0.00 0.00 80 1016.3
20260509212111 11 0 0.0 0.0 0.00 0.00 0.00 79 1016.3
20260509210106 11 0 0.0 0.0 0.00 0.00 0.00 79 1016.4
20260509205112 11 0 0.0 0.0 0.00 0.00 0.00 79 1016.4
20260509204111 11 0 0.0 0.0 0.00 0.00 0.00 80 1016.3
20260509203112 11 0 0.0 0.0 0.00 0.00 0.00 79 1016.4
20260509201115 11 0 0.0 0.0 0.00 0.00 0.00 78 1016.2
20260509200111 12 0 0.0 0.0 0.00 0.00 0.00 78 1016.2
20260509194110 12 0 0.0 0.0 0.00 0.00 0.00 76 1016.1
20260509193110 13 0 0.0 0.0 0.00 0.00 0.00 75 1016.0
20260509192110 13 0 0.0 0.0 0.00 0.00 0.00 75 1015.9
20260509191108 14 0 0.0 0.0 0.00 0.00 0.00 73 1015.8
20260509185111 15 0 0.0 0.0 0.00 0.00 0.00 70 1015.6
20260509184106 16 0 0.0 0.0 0.00 0.00 0.00 72 1015.5
20260509183109 16 0 0.0 0.0 0.00 0.00 0.00 72 1015.5
20260509182107 16 0 0.0 0.0 0.00 0.00 0.00 68 1015.3
20260509181105 17 0 0.0 0.0 0.00 0.00 0.00 67 1015.2
20260509180106 17 0 0.0 0.0 0.00 0.00 0.00 61 1015.1
20260509175103 18 0 0.0 0.0 0.00 0.00 0.00 50 1014.9
20260509174107 18 0 0.0 0.0 0.00 0.00 0.00 50 1014.8
20260509173106 19 0 0.0 0.0 0.00 0.00 0.00 49 1014.8
20260509172107 19 0 0.0 0.0 0.00 0.00 0.00 49 1015.0
20260509170105 18 0 0.0 0.0 0.00 0.00 0.00 49 1014.8
20260509165101 19 0 0.0 0.0 0.00 0.00 0.00 45 1014.8
20260509164105 20 0 0.0 0.0 0.00 0.00 0.00 44 1014.7
20260509163103 20 0 0.0 0.0 0.00 0.00 0.00 44 1014.7
20260509161102 20 0 0.0 0.0 0.00 0.00 0.00 44 1015.0
20260509160100 20 0 0.0 0.0 0.00 0.00 0.00 42 1014.9
20260509154100 20 0 0.0 0.0 0.00 0.00 0.00 42 1015.0
20260509153059 20 0 0.0 0.0 0.00 0.00 0.00 43 1015.1
20260509152104 20 0 0.0 0.0 0.00 0.00 0.00 44 1015.3
20260509151059 20 0 0.0 0.0 0.00 0.00 0.00 44 1015.5
20260509145059 20 0 0.0 0.0 0.00 0.00 0.00 42 1015.5
20260509144057 20 0 0.0 0.0 0.00 0.00 0.00 44 1015.6
20260509142058 20 0 0.0 0.0 0.00 0.00 0.00 43 1015.6
20260509141058 20 0 0.0 0.0 0.00 0.00 0.00 42 1015.7
20260509135057 19 0 0.0 0.0 0.00 0.00 0.00 44 1016.1
20260509134056 20 0 0.0 0.0 0.00 0.00 0.00 43 1016.0
20260509133100 20 0 0.0 0.0 0.00 0.00 0.00 45 1016.2
20260509132058 20 0 0.0 0.0 0.00 0.00 0.00 45 1016.4
20260509131057 19 0 0.0 0.0 0.00 0.00 0.00 45 1016.5
20260509130056 19 0 0.0 0.0 0.00 0.00 0.00 45 1016.7
20260509124056 19 0 0.0 0.0 0.00 0.00 0.00 46 1016.8
20260509122056 19 0 0.0 0.0 0.00 0.00 0.00 47 1017.0
20260509121057 18 0 0.0 0.0 0.00 0.00 0.00 46 1017.2
20260509120058 18 0 0.0 0.0 0.00 0.00 0.00 46 1017.4
20260509115058 18 0 0.0 0.0 0.00 0.00 0.00 46 1017.4
20260509114057 18 0 0.0 0.0 0.00 0.00 0.00 46 1017.6
20260509113057 18 0 0.0 0.0 0.00 0.00 0.00 47 1017.7
20260509112053 18 0 0.0 0.0 0.00 0.00 0.00 47 1017.7
20260509111058 18 0 0.0 0.0 0.00 0.00 0.00 48 1017.7
20260509110056 17 0 0.0 0.0 0.00 0.00 0.00 48 1017.9
20260509104056 17 0 0.0 0.0 0.00 0.00 0.00 51 1018.1
20260509103057 17 0 0.0 0.0 0.00 0.00 0.00 52 1018.2
20260509102058 17 0 0.0 0.0 0.00 0.00 0.00 52 1018.4
20260509101058 17 0 0.0 0.0 0.00 0.00 0.00 52 1018.4
20260509100056 17 0 0.0 0.0 0.00 0.00 0.00 53 1018.4
20260509095057 16 0 0.0 0.0 0.00 0.00 0.00 55 1018.5
20260509094056 16 0 0.0 0.0 0.00 0.00 0.00 55 1018.6
20260509093058 16 0 0.0 0.0 0.00 0.00 0.00 56 1018.6
20260509092056 16 0 0.0 0.0 0.00 0.00 0.00 57 1018.7
20260509091056 16 0 0.0 0.0 0.00 0.00 0.00 56 1018.8
20260509090057 16 0 0.0 0.0 0.00 0.00 0.00 59 1018.9
20260509085056 15 0 0.0 0.0 0.00 0.00 0.00 60 1018.9
20260509084057 15 0 0.0 0.0 0.00 0.00 0.00 63 1018.9
20260509083057 15 0 0.0 0.0 0.00 0.00 0.00 63 1019.0
20260509082057 14 0 0.0 0.0 0.00 0.00 0.00 65 1019.2
20260509081058 14 0 0.0 0.0 0.00 0.00 0.00 66 1019.3
20260509080057 13 0 0.0 0.0 0.00 0.00 0.00 67 1019.4
20260509075057 13 0 0.0 0.0 0.00 0.00 0.00 68 1019.6
20260509072058 12 0 0.0 0.0 0.00 0.00 0.00 71 1019.7
20260509071057 12 0 0.0 0.0 0.00 0.00 0.00 71 1019.8
20260509070053 11 0 0.0 0.0 0.00 0.00 0.00 72 1019.8